#timestamp,LO_Frequency,Hit,StdDev 
1511305215.5,286047012.0,N
1511305235.3,286047011.4,N
1511305255.1,286047006.1,N
1511305275.8,286047010.4,N
1511305295.7,286047011.5,N
1511305315.5,286047010.1,N
1511305335.3,286047004.9,N
1511305355.2,286047004.3,N
1511305375.0,286047003.9,N
1511305375.9,286047003.9,N
1511305395.7,286047002.1,N
1511305415.6,286047007.2,N
1511305435.4,286047005.1,N
1511305455.2,286047000.0,N
1511305475.1,286046997.4,N
1511305476.0,286046997.4,N
1511305495.8,286046995.9,N
1511305515.6,286046996.7,N
1511305535.5,286047000.0,N
1511305555.3,286046996.3,N
1511305575.1,286046999.6,N
1511305595.8,286047002.4,N
1511305615.7,286047001.6,N
1511305635.5,286047001.2,N
1511305655.3,286046997.4,N
1511305675.2,286046995.2,N
1511305695.0,286046993.7,N
1511305695.9,286046993.7,N
1511305715.7,286046994.8,N
1511305735.6,286046989.8,N
1511305755.4,286046986.9,N
1511305775.2,286046988.9,N
1511305795.1,286046996.1,N
1511305796.0,286046996.1,N
1511305815.8,286046993.9,N
1511305835.6,286046995.2,N
1511305855.5,286046997.3,N
1511305875.3,286047003.1,N
1511305895.1,286047003.3,N
1511305915.9,286047003.1,N
1511305935.7,286047006.1,N
1511305955.5,286047004.4,N
1511305975.3,286047000.6,N
1511305995.2,286046998.3,N
1511306015.0,286046998.5,N
1511306015.9,286046998.5,N
1511306035.7,286046999.7,N
1511306055.6,286047001.4,N
1511306075.4,286047000.0,N
1511306095.2,286046999.2,N
1511306115.1,286046995.4,N
1511306116.0,286046995.4,N
1511306135.8,286047001.2,N
1511306155.6,286046993.5,N
1511306175.5,286046993.9,N
1511306195.3,286046997.0,N
1511306215.1,286047007.3,N
1511306235.9,286047015.5,Y
1511306255.7,286047017.0,P
1511306275.5,286047012.4,N
1511306295.4,286047010.9,N
1511306315.2,286047013.2,N
1511306335.0,286047020.4,Y
1511306335.9,286047020.4,P
1511306355.8,286047005.2,N
1511306375.6,286047008.7,N
1511306395.4,286047004.1,N
1511306415.3,286047002.0,N
1511306435.1,286047011.9,N
1511306436.0,286047011.9,N
1511306455.8,286047013.0,N
1511306475.6,286047013.7,N
1511306495.5,286047011.7,N
1511306515.3,286047012.2,N
1511306535.1,286047005.8,N
1511306555.9,286047000.9,N
1511306575.7,286046996.8,N
1511306595.5,286047001.0,N
1511306615.4,286046995.8,N
1511306635.2,286046994.7,N
1511306655.0,286047001.9,N
1511306655.9,286047001.9,N
1511306675.8,286047008.6,N
1511306695.6,286047010.1,N
1511306715.4,286047009.6,N
1511306735.2,286047009.0,N
1511306755.1,286047000.0,N
1511306756.0,286047000.0,N
1511306775.8,286046999.2,N
1511306795.6,286046996.4,N
1511306815.5,286046996.2,N
1511306835.3,286046996.0,N
1511306855.1,286046990.4,N
1511306875.9,286046991.8,N
1511306895.7,286046993.8,N
1511306915.5,286046991.9,N
1511306935.4,286046993.3,N
1511306955.2,286046995.5,N
1511306975.0,286046994.9,N
1511306975.9,286046994.9,N
1511306995.8,286046991.9,N
1511307015.6,286046992.9,N
1511307035.4,286046993.5,N
1511307055.2,286046997.2,N
1511307075.1,286047001.2,N
1511307076.0,286047001.2,N
1511307095.8,286046999.0,N
1511307115.6,286046996.9,N
1511307135.5,286046997.1,N
1511307155.3,286046994.5,N
1511307175.1,286046993.9,N
1511307195.9,286046994.2,N
1511307215.7,286046996.8,N
1511307235.5,286046996.8,N
1511307255.4,286046999.0,N
1511307275.2,286046998.4,N
1511307295.0,286046995.3,N
1511307295.9,286046995.3,N
1511307315.8,286046998.2,N
1511307335.6,286046995.5,N
1511307355.4,286046993.3,N
1511307375.2,286046998.6,N
1511307395.1,286046997.5,N
1511307396.0,286046997.5,N
1511307415.8,286046995.7,N
1511307435.6,286046994.8,N
1511307455.5,286046990.1,Y
1511307475.3,286046999.6,P
1511307495.1,286046994.6,P
1511307515.9,286046990.3,P
1511307535.7,286046994.1,N
1511307555.5,286046993.5,N
1511307575.4,286046994.3,N
1511307595.2,286046993.8,N
1511307615.0,286046991.1,Y
1511307615.9,286046991.1,P
1511307635.8,286046992.4,P
1511307655.6,286046988.9,P
1511307675.4,286046989.4,Y
1511307695.3,286046995.7,P
1511307715.1,286046993.7,P
1511307735.8,286046994.5,P
1511307755.7,286046992.7,Y
1511307775.5,286046997.7,P
1511307795.3,286046997.4,N
1511307815.2,286046994.4,P
1511307835.0,286046996.6,N
1511307835.9,286046996.6,N
1511307855.7,286046997.0,N
1511307875.6,286046998.1,N
1511307895.4,286047004.4,Y
1511307915.2,286047005.4,P
1511307935.1,286047007.4,N
1511307936.0,286047007.4,N
1511307955.8,286047006.8,N
1511307975.6,286047003.0,N
1511307995.5,286047004.7,N
1511308015.3,286047002.9,N
1511308035.1,286047007.5,N
1511308055.9,286047005.8,N
1511308075.7,286047008.8,N
1511308095.5,286047006.4,N
1511308115.4,286047005.8,N
1511308135.2,286047004.9,N
1511308155.0,286047006.8,N
1511308155.9,286047006.8,N
1511308175.8,286047008.1,N
1511308195.6,286047011.1,Y
1511308215.4,286047009.0,P
1511308235.3,286047015.3,P
1511308255.1,286047021.5,P
1511308256.0,286047021.5,Y
1511308275.8,286047008.3,P
1511308295.7,286047001.7,N
1511308315.5,286047001.4,N
1511308335.3,286047001.4,N
1511308355.1,286047001.4,N
1511308375.9,286047003.0,N
1511308395.7,286047004.5,N
1511308415.6,286047012.2,Y
1511308435.4,286047006.6,P
1511308455.2,286047009.9,P
1511308475.0,286047011.2,P
1511308476.0,286047011.2,Y
1511308495.8,286047005.3,P
1511308515.6,286047007.8,P
1511308535.4,286047010.3,P
1511308555.3,286047009.6,Y
1511308575.1,286047001.0,P
1511308595.9,286047002.8,N
1511308615.7,286047001.4,N
1511308635.5,286047004.4,N
1511308655.3,286047003.3,N
1511308675.2,286047005.4,N
1511308695.0,286047005.7,N
1511308695.9,286047005.7,N
1511308715.7,286047002.9,N
1511308735.6,286047000.2,N
1511308755.4,286047002.3,N
1511308775.2,286046998.9,N
1511308795.1,286047000.7,N
1511308796.0,286047000.7,N
